Back to catalog

STARLINK-31934

AliveCommunicationsVLEO
NORAD 59877·PAYLOAD·🇺🇸 United States

Launched May 24, 2024 from Cape Canaveral Space Force Station

Loading…

Next Passes (next 24 hours)

TLE

FreshSource: CelesTrak SupGP

Epoch: Sep 14, 2026, 22:44 UTC

1 59877C 24098V   26257.94770833  .00031885  00000+0  11547-2 0  2573
2 59877  43.0014 285.4473 0001724 270.6213  91.5048 15.27565668    17

Track STARLINK-31934 in real time with AllMySat

Download on the App Store